Regional Weather Roundup
Issued by NWS

Home | Current Version | Previous Version | Graphics & Text | Print | Product List | Glossary On
Versions: 1 2 3 4 5 6 7 8 9 10 11 12 13 14 15 16 17 18 19 20 21 22 23 24 25 26 27 28 29 30 31 32 33 34 35 36 37 38 39 40 41 42 43 44 45 46 47 48 49 50
000
ASUS43 KLMK 200210
RWRKY
KENTUCKY REGIONAL WEATHER ROUNDUP
NATIONAL WEATHER SERVICE LOUISVILLE KY
1000 PM EDT SAT APR 19 2014

NOTE "FAIR" INDICATES FEW OR NO CLOUDS BELOW 12,000 FEET
WITH NO SIGNIFICANT WEATHER AND/OR OBSTRUCTIONS TO VISIBILITY.

KYZ001>023-026-027-061>063-070>075-200300-
WESTERN AND SOUTH CENTRAL KENTUCKY

CITY           SKY/WX    TMP DP  RH WIND       PRES   REMARKS
PADUCAH        PTCLDY    64  42  44 NE5       30.17R
HENDERSON      PTCLDY    57  48  72 CALM      30.18R
OWENSBORO      CLEAR     64  35  34 E6        30.19R
HOPKINSVILLE   CLEAR     63  41  45 N3        30.17R
BOWLING GREEN  CLEAR     57  42  57 CALM      30.18R
GLASGOW        CLEAR     62  35  35 NE3       30.18S
$$

KYZ024-025-028>034-038-045-046-053-200300-
NORTH CENTRAL KENTUCKY

CITY           SKY/WX    TMP DP  RH WIND       PRES   REMARKS
LOUISVILLE/SDF PTCLDY    63  36  36 NE7       30.20S
LOUISVILLE/LOU CLEAR     66  35  31 NE5       30.21S
FORT KNOX      CLEAR     62  35  36 NE6       30.19R
$$

KYZ035>037-039>044-047>052-055>060-089>105-200300-
NORTHEAST KENTUCKY

CITY           SKY/WX    TMP DP  RH WIND       PRES   REMARKS
LEXINGTON      PTCLDY    58  36  43 NE8       30.22R
COVINGTON      PTCLDY    61  34  36 NE7       30.24S
FRANKFORT      CLEAR     62  32  32 NE6       30.21R
$$

KYZ054-064>069-076>088-106>120-200300-
SOUTHEAST KENTUCKY

CITY           SKY/WX    TMP DP  RH WIND       PRES   REMARKS
JACKSON        MOCLDY    63  31  30 VRB5      30.21R
LONDON         PTCLDY    65  33  30 NE7       30.18R
SOMERSET       PTCLDY    61  34  36 NE7       30.20R
MIDDLESBORO    MOCLDY    57  43  59 CALM      30.19R
MONTICELLO     CLEAR     55  42  61 NE6       30.20R
$$




USA.gov is the U.S. government's official web portal to all federal, state and local government web resources and services.